Home > Weather > Springfield > Past weeks

Flag for USA Past Weather in Springfield, Massachusetts, USA — Yesterday and Last 2 Weeks

Now
70 °F

Overcast.


Feels Like: 67 °F
Forecast: 65 / 83 °F
Wind: 6 mph from South

Location: Barnes Municipal Airport

Current Time: Jun 28, 2016 at 11:54:24 PM

Latest Report: Jun 28, 2016 at 10:53 PM


Visibility: 10 mi

Pressure: 29.88 "Hg

Humidity: 90%

Dew Point: 67 °F

Location of SpringfieldLocation

Past Weather in Springfield — Graph

°F

Springfield Temperature Yesterday

Maximum temperature yesterday: 85 °F (at 12:53 PM)
Minimum temperature yesterday: 59 °F (at 5:53 AM)
Average temperature yesterday: 72 °F

High & Low Weather Summary for the Past Weeks

 TemperatureHumidityPressure
High89 °F (Jun 26, 2:53 PM)97% (Jun 28, 2:53 AM)30.31 "Hg (Jun 28, 2:53 AM)
Low49 °F (Jun 15, 4:53 AM)22% (Jun 21, 2:53 PM)29.70 "Hg (Jun 16, 5:53 PM)
Average70 °F58%29.99 "Hg
* Reported Jun 13 9:53 PM — Jun 28 9:53 PM, Springfield, Weather by CustomWeather, © 2016

Note: Actual official high and low records may vary slightly from our data, if they occured in-between our weather recording intervals... More about our weather records

Advertising

Springfield Weather History for the Previous 24 Hours

Scroll right to see more
 ConditionsComfort  
Time TempWeatherWind HumidityBarometerVisibility
9:53 PM
Tue, Jun 28
70 °FOvercast.5 mph90%29.89 "Hg10 mi
8:53 PM69 °FOvercast.No wind93%29.90 "Hg10 mi
7:53 PM71 °FOvercast.3 mph84%29.90 "Hg10 mi
6:53 PM72 °FOvercast.6 mph78%29.90 "Hg10 mi
5:53 PM72 °FOvercast.12 mph78%29.90 "Hg10 mi
4:53 PM73 °FMostly cloudy.9 mph74%29.90 "Hg10 mi
3:53 PM75 °FMore clouds than sun.8 mph66%29.90 "Hg10 mi
2:53 PM78 °FPartly sunny.10 mph60%29.91 "Hg10 mi
1:53 PM79 °FPassing clouds.13 mph58%29.92 "Hg10 mi
12:53 PM75 °FMore clouds than sun.10 mph74%29.95 "Hg10 mi
11:53 AM72 °FMore clouds than sun.8 mph81%29.97 "Hg10 mi
11:00 AM72 °FMore clouds than sun.10 mph84%29.98 "Hg10 mi
10:53 AM73 °FMostly cloudy.8 mph81%29.97 "Hg8 mi
9:53 AM71 °FMostly cloudy.9 mph87%29.96 "Hg8 mi
8:53 AM70 °FMostly cloudy.8 mph90%29.97 "Hg10 mi
7:53 AM69 °FFog.6 mph93%29.97 "Hg5 mi
7:02 AM68 °FFog.7 mph93%29.97 "Hg5 mi
6:53 AM68 °FFog.7 mph93%29.96 "Hg2 mi
5:53 AM68 °FFog.7 mph93%29.96 "Hg4 mi
4:53 AM68 °FMostly cloudy.5 mph93%29.96 "Hg10 mi
3:53 AM68 °FOvercast.8 mph90%29.96 "Hg10 mi
2:53 AM67 °FLight rain. Fog.8 mph97%29.96 "Hg4 mi
2:01 AM68 °FHeavy rain. Fog.7 mph90%29.98 "Hg2 mi
12:53 AM69 °FOvercast.10 mph84%29.97 "Hg10 mi
11:53 PM
Mon, Jun 27
71 °FOvercast.9 mph76%29.99 "Hg10 mi
Weather by CustomWeather, © 2016

See weather overviewHow to use our weather pages